Flag for Germany Weather past 2 weeks in Munich, Bavaria, Germany

Now
72 °F

Passing clouds.


Feels Like: 77 °F
Forecast: 50 / 75 °F
Wind: 9 mph from East

Location: Oberpfaffenhofen

Current Time: Jul 24, 2014 at 12:47:54 PM

Latest Report: Jul 24, 2014 at 12:20 PM


Visibility: N/A

Pressure: 29.92 "Hg

Humidity: 50%

Dew point: 52 °F

Location of MunichLocation

Historic Weather in Munich — Graph

°F

Munich temperature yesterday

Maximum temperature yesterday: 75 °F (at 2:50 PM)
Minimum temperature yesterday: 59 °F (at 6:50 AM)
Average temperature yesterday: 71 °F

Past Weeks' High & Low Weather Summary

 TemperatureHumidityPressure
High90 °F (Jul 19, 5:50 PM)100% (Jul 16, 6:50 AM)30.24 "Hg (Jul 16, 6:50 AM)
Low50 °F (Jul 10, 6:50 AM)21% (Jul 19, 5:20 PM)29.80 "Hg (Jul 10, 6:50 AM)
Average67 °F66%30.01 "Hg
* Reported Jul 9 2:50 PM — Jul 24 11:50 AM, Munich, Weather by CustomWeather, © 2014

Note: Actual official high and low records may vary slightly from our data, if they occured in-between our weather recording intervals... More about our weather records

Advertising

Munich weather history for previous 24 hours

 ConditionsComfort  
Time TempWeatherWind HumidityBarometerVisibility
11:50 AM
Jul 24
72 °FPassing clouds.9 mph57%29.92 "HgN/A
11:20 AM72 °FPassing clouds.6 mph53%29.92 "HgN/A
10:50 AM70 °FPassing clouds.9 mph60%29.92 "HgN/A
10:20 AM70 °FPassing clouds.5 mph60%29.92 "HgN/A
9:50 AM66 °FSunny.3 mph73%29.92 "Hg10 mi
9:20 AM64 °FPassing clouds.5 mph73%29.92 "HgN/A
8:50 AM64 °FSunny.3 mph78%29.92 "Hg10 mi
8:20 AM63 °FSunny.2 mph73%29.92 "Hg10 mi
7:50 AM61 °FSunny.No wind77%29.92 "Hg10 mi
7:20 AM55 °FSunny.1 mph94%29.92 "Hg10 mi
6:50 AM52 °FSunny.1 mph94%29.92 "Hg10 mi
7:20 PM
Jul 23
73 °FPassing clouds.10 mph44%29.98 "HgN/A
6:50 PM73 °FSunny.12 mph44%29.98 "Hg10 mi
6:20 PM75 °FSunny.13 mph44%29.98 "Hg10 mi
5:50 PM75 °FScattered clouds.13 mph44%29.98 "HgN/A
5:20 PM75 °FPassing clouds.10 mph44%29.98 "HgN/A
4:50 PM75 °FScattered clouds.15 mph44%29.98 "HgN/A
4:20 PM75 °FPartly sunny.10 mph44%29.98 "HgN/A
3:50 PM75 °FScattered clouds.9 mph47%29.98 "HgN/A
2:50 PM75 °FScattered clouds.13 mph54%30.01 "HgN/A
1:20 PM72 °FScattered clouds.12 mph61%30.01 "HgN/A
12:50 PM72 °FPartly sunny.13 mph65%30.01 "HgN/A
12:20 PM72 °FPartly sunny.10 mph69%30.01 "HgN/A
Weather by CustomWeather, © 2014

See weather overviewHow to use our weather pages